This is the latest recevied weather packets stored in our database for station/object VR2OT-10. If no packets are shown the sender has not sent any weather packets the latest 10 day(s).
| Time | Temp. | Humidity | Pressure | Rain* | Wind** | Luminosity | Snow |
|---|---|---|---|---|---|---|---|
| 1787978432 | 31.67° C | 72% | 999.8 hPa | - | 2.24 m/s, 270° | - | - |
| 1787977533 | 31.67° C | 74% | 999.8 hPa | - | 1.79 m/s, 225° | - | - |
| 1787976633 | 31.11° C | 75% | 1000 hPa | - | 1.79 m/s, 225° | - | - |
| 1787975731 | 31.67° C | 73% | 1000 hPa | - | 1.79 m/s, 225° | - | - |
| 1787974834 | 31.11° C | 74% | 1000 hPa | - | 1.34 m/s, 225° | - | - |
| 1787973933 | 31.67° C | 74% | 1000.2 hPa | - | 1.34 m/s, 225° | - | - |
| 1787973031 | 31.67° C | 74% | 1000.5 hPa | - | 1.79 m/s, 270° | - | - |
| 1787972133 | 31.11° C | 76% | 1000.7 hPa | - | 1.79 m/s, 225° | - | - |
| 1787971233 | 31.67° C | 77% | 1000.7 hPa | - | 1.79 m/s, 225° | - | - |
| 1787969434 | 31.67° C | 79% | 1000.6 hPa | - | 1.79 m/s, 225° | - | - |
| 1787968533 | 31.11° C | 81% | 1000.6 hPa | - | 2.24 m/s, 225° | - | - |
| 1787967631 | 31.11° C | 81% | 1000.6 hPa | - | 1.79 m/s, 225° | - | - |
| 1787966733 | 30.56° C | 82% | 1000.2 hPa | - | 1.79 m/s, 270° | - | - |
| 1787965834 | 30° C | 82% | 1000.2 hPa | - | 1.34 m/s, 270° | - | - |
| 1787964932 | 30° C | 82% | 1000.2 hPa | - | 1.34 m/s, 270° | - | - |
| 1787963132 | 29.44° C | 84% | 1000 hPa | - | 2.24 m/s, 270° | - | - |
| 1787962231 | 30° C | 84% | 1000 hPa | - | 2.24 m/s, 270° | - | - |
| 1787961333 | 29.44° C | 85% | 999.8 hPa | - | 0.89 m/s, 270° | - | - |
| 1787960434 | 28.89° C | 86% | 999.8 hPa | - | 1.34 m/s, 270° | - | - |
| 1787959531 | 28.89° C | 86% | 1000 hPa | - | 1.34 m/s, 270° | - | - |
| 1787958634 | 28.89° C | 86% | 999.9 hPa | - | 0.89 m/s, 270° | - | - |
| 1787957733 | 28.89° C | 87% | 1000.1 hPa | - | 1.34 m/s, 270° | - | - |
| 1787956831 | 28.33° C | 86% | 1000.1 hPa | - | 1.34 m/s, 270° | - | - |
| 1787955932 | 28.33° C | 86% | 1000.1 hPa | - | 1.34 m/s, 270° | - | - |
| 1787955034 | 28.89° C | 87% | 1000.2 hPa | - | 0.89 m/s, 315° | - | - |
* Rain since midnight (hover to see other rain measurements)
** Current wind speed in m/s (hover to see current wind gust speed)